STARLINK-35325, 66080

Orbit data source: Space-Track

STARLINK-35325, 66080 is a payload satellite owned by SpaceX/Seattle (US) in LEO that was launched on Sun, 19 Oct 2025 UTC via an FALCON 9 launch vehicle from the Air Force Eastern Test Range (AFETR). Payload-class satellites include a variety of spacecraft equipped with specific instruments for various scientific and technological missions. These include communications satellites like Starlink; space stations such as the ISS; scientific satellites like the Hubble; Earth observation satellites from companies like Planet Labs, Umbra, and HawkEye 360; GPS; miniature CubeSats for education and research; and military/defense satellites.

Loading next visibility...
Identifier
66080, 2025-235Y
Orbit
LEO
Country
Flag of USUS
Related business
Manufacturer
SpaceX/Seattle
Mission
Operational spacecraft
Bus & Motor
STARLINK V2MO, Unknown motor
Mass
575 kg wet, ~530 kg dry
Launch date (UTC)
2025-10-19 (2 weeks ago)
Launch vehicle
FALCON 9
Launch site
Air Force Eastern Test Range (AFETR)
Object type
Payload
Rocket body
Debris
Shape & HBR
Unknown
Radar Cross Section
RCS unknown

Expand to show TLE details & history
Last TLE update: 15 hours ago

TLE from 15 hours ago
0 STARLINK-35325
1 66080U 25235Y   25306.50002315 -.00311408  00000-0 -21812-2 0  9994
2 66080  53.1512 120.1630 0001003  87.0820 156.1834 15.74401010  3410
Epoch: 2025-11-02T12:00Z
TLE epoch observation values (Epoch: 2025-11-02T12:00:02.000Z)
Latitude
-45.81115°
Longitude
128.1917°
Altitude
362.498 km
Speed
7.691 km/s
True Right ascension
23h 20m 51s
True Declination
-45° 37' 45"
Sunlit
Object was in daylight at epoch
Visualization orbit readout
Latitude
Unknown
Longitude
Unknown
Altitude
Unknown
Speed
Unknown
Apparent Right ascension
Unknown
Apparent Declination
Unknown
Sunlit
N/A
Visualization observer readout
Local Sidereal Time
22:58:02
Azimuth
Unknown
Elevation
Unknown
Doppler factor
Unknown
Orbital elements
Apogee altitude
347.273 km
Perigee altitude
345.924 km
Semi-major axis
6,724.736 km
Eccentricity
0.0001
Inclination
53.1512°
RAAN
120.163°
Arg. of periapsis
87.082°
True anomaly
156.18804°
Mean anomaly
156.1834°
Eccentric anomaly
156.18572°
Mean motion
3.93578 °/min
Orbital period
91.47 mins
BSTAR
-0.0021812
Loading maneuver chart data...
Computing Atmospheric mass density...
Loading historical data...
Loading historical data...
Loading historical data...
Loading historical data...
Loading historical data...
Loading historical data...
Loading historical data...

Documentation

Showing up to 5 results
|